Weather History for KLWT - May, 2013

Change the Weather History Date:

Wednesday, May 22, 2013

  Actual Average Record
Temperature  
Mean Temperature 50 °F 52 °F  
Max Temperature 57 °F 64 °F 93 °F (1928)
Min Temperature 43 °F 40 °F 24 °F (1930)
Degree Days  
Heating Degree Days 15 13  
Month to date heating degree days 302 359  
Since 1 July heating degree days 7715 7866  
Cooling Degree Days 0 0  
Month to date cooling degree days 3 0  
Year to date cooling degree days 3 0  
Moisture  
Dew Point 41 °F    
Average Humidity 70    
Maximum Humidity 83    
Minimum Humidity 57    
Precipitation  
Precipitation 0.00 in 0.10 in 1.10 in (1901)
Month to date precipitation 1.87 1.85  
Year to date precipitation 5.23 5.26  
Snow  
Snow 0.00 in - - ()
Snow Depth 0.00 in    
Sea Level Pressure  
Sea Level Pressure 29.89 in    
Wind  
Wind Speed 24 mph (ESE)    
Max Wind Speed 35 mph    
Max Gust Speed 46 mph    
Visibility 10 miles    
Events      
T = Trace of Precipitation, MM = Missing Value Source: NWS Daily Summary

Daily Weather History Graph

Daily Weather History Graph

Search for Another Location

Airport or City:

Trip Planner

Search our weather history database for the weather conditions in past years. The results will help you decide how hot, cold, wet, or windy it might be!

Date:

Astronomy

May. 22, 2013 Rise Set
Actual Time 5:34 AM MDT 8:55 PM MDT
Civil Twilight 4:57 AM MDT 9:32 PM MDT
Nautical Twilight 4:08 AM MDT 10:22 PM MDT
Astronomical Twilight 3:05 AM MDT 11:25 PM MDT
Moon 6:13 PM MDT (5/22) 3:51 AM MDT (5/22)
Length of Visible Light 16h 35m
Length of Day
15h 21m
Waxing Gibbous, 92% of the Moon is Illuminated
May 22
Waxing Gibbous
May 24
Full
May 31
Last Quarter
Jun 8
New
Jun 16
First Quarter

Hourly Weather History & Observations

Time (MDT) Temp. Windchill Dew Point Humidity Pressure Visibility Wind Dir Wind Speed Gust Speed Precip Events Conditions
12:54 AM 46.0 °F 38.8 °F 37.9 °F 73% 29.90 in 10.0 mi ESE 18.4 mph 24.2 mph N/A   Clear
1:54 AM 45.0 °F 37.4 °F 37.0 °F 74% 29.89 in 10.0 mi East 18.4 mph - N/A   Scattered Clouds
2:22 AM 46.4 °F 38.5 °F 39.2 °F 76% 29.93 in 10.0 mi East 21.9 mph 26.5 mph N/A   Mostly Cloudy
2:54 AM 46.0 °F 39.0 °F 39.0 °F 76% 29.88 in 10.0 mi ESE 17.3 mph 31.1 mph N/A   Overcast
3:54 AM 46.0 °F 38.8 °F 39.0 °F 76% 29.88 in 10.0 mi ESE 18.4 mph - N/A   Overcast
4:54 AM 45.0 °F 37.1 °F 39.9 °F 82% 29.87 in 10.0 mi ESE 19.6 mph 25.3 mph N/A   Overcast
5:17 AM 44.6 °F 36.9 °F 39.2 °F 81% 29.91 in 10.0 mi ESE 18.4 mph - N/A   Overcast
5:43 AM 44.6 °F 37.2 °F 39.2 °F 81% 29.90 in 10.0 mi ESE 17.3 mph - N/A   Overcast
5:54 AM 44.1 °F 35.7 °F 39.9 °F 85% 29.86 in 10.0 mi ESE 20.7 mph 26.5 mph N/A   Overcast
6:54 AM 44.1 °F 36.5 °F 39.9 °F 85% 29.88 in 10.0 mi ESE 17.3 mph - N/A   Overcast
7:38 AM 44.6 °F 36.6 °F 41.0 °F 87% 29.90 in 8.0 mi ESE 19.6 mph 26.5 mph N/A   Scattered Clouds
7:54 AM 46.0 °F 37.6 °F 39.9 °F 79% 29.87 in 10.0 mi ESE 24.2 mph 32.2 mph N/A   Scattered Clouds
8:54 AM 46.0 °F 36.9 °F 39.0 °F 76% 29.89 in 10.0 mi ESE 28.8 mph 35.7 mph N/A   Mostly Cloudy
9:54 AM 48.9 °F - 39.0 °F 69% 29.88 in 10.0 mi ESE 27.6 mph 39.1 mph N/A   Scattered Clouds
10:33 AM 50.0 °F - 39.2 °F 66% 29.90 in 10.0 mi ESE 31.1 mph 40.3 mph N/A   Mostly Cloudy
10:54 AM 50.0 °F - 41.0 °F 71% 29.89 in 10.0 mi ESE 29.9 mph 40.3 mph N/A   Overcast
11:54 AM 51.1 °F - 42.1 °F 71% 29.89 in 10.0 mi ESE 28.8 mph 39.1 mph N/A   Overcast
12:54 PM 51.1 °F - 43.0 °F 74% 29.90 in 10.0 mi ESE 29.9 mph 39.1 mph N/A   Overcast
1:54 PM 54.0 °F - 43.0 °F 66% 29.89 in 10.0 mi SE 34.5 mph 40.3 mph N/A   Overcast
2:54 PM 55.9 °F - 44.1 °F 64% 29.89 in 10.0 mi ESE 26.5 mph 35.7 mph N/A   Overcast
3:01 PM 55.4 °F - 42.8 °F 63% 29.91 in 10.0 mi ESE 29.9 mph 38.0 mph N/A   Overcast
3:08 PM 57.2 °F - 44.6 °F 63% 29.91 in 10.0 mi ESE 26.5 mph 38.0 mph N/A   Overcast
3:54 PM 55.9 °F - 43.0 °F 62% 29.88 in 10.0 mi ESE 25.3 mph 35.7 mph N/A   Overcast
4:54 PM 57.0 °F - 42.1 °F 57% 29.89 in 10.0 mi ESE 21.9 mph 36.8 mph N/A   Overcast
5:54 PM 55.9 °F - 43.0 °F 62% 29.88 in 10.0 mi ESE 21.9 mph 34.5 mph N/A   Mostly Cloudy
6:54 PM 55.0 °F - 42.1 °F 62% 29.88 in 10.0 mi ESE 25.3 mph 39.1 mph N/A   Clear
7:54 PM 54.0 °F - 42.1 °F 64% 29.92 in 10.0 mi SE 19.6 mph - N/A   Mostly Cloudy
8:54 PM 54.0 °F - 41.0 °F 62% 29.91 in 10.0 mi ESE 19.6 mph 28.8 mph N/A   Scattered Clouds
9:54 PM 53.1 °F - 39.9 °F 61% 29.92 in 10.0 mi ESE 24.2 mph 32.2 mph N/A   Scattered Clouds
10:54 PM 52.0 °F - 39.9 °F 63% 29.91 in 10.0 mi ESE 27.6 mph 39.1 mph N/A   Partly Cloudy
11:54 PM 52.0 °F - 39.9 °F 63% 29.90 in 10.0 mi ESE 28.8 mph 36.8 mph N/A   Mostly Cloudy